Overview Statistics Trail Chart Weather Telemetry Raw packets
 

This is the latest recevied weather packets stored in our database for station/object EFIV. If no packets are shown the sender has not sent any weather packets the latest 10 day(s).

<< 4 5 6 7 8 9 10 >>
Time Temp. Humidity Pressure Rain* Wind** Luminosity Snow
1787746833 10.56° C 46% 1027.7 hPa - - - -
1787745633 10° C 48% 1027.6 hPa - - - -
1787744433 10.56° C 45% 1027.6 hPa - - - -
1787743233 10° C 46% 1027.6 hPa - - - -
1787742034 9.44° C 49% 1027.8 hPa - - - -
1787740833 9.44° C 53% 1027.7 hPa - - - -
1787739633 9.44° C 51% 1027.5 hPa - - - -
1787738642 9.44° C 51% 1027.5 hPa - - - -
1787737442 8.89° C 55% 1027.6 hPa - - - -
1787736032 8.89° C 53% 1027.3 hPa - - - -
1787735043 8.89° C 56% 1027.3 hPa - - - -
1787733846 8.33° C 55% 1027.2 hPa - - - -
1787732639 8.33° C 59% 1027.2 hPa - - - -
1787731442 8.33° C 59% 1027.1 hPa - - - -
1787651038 16.11° C 64% 1015.6 hPa - - - -
1787649837 15.56° C 65% 1015.5 hPa - - - -
1787648637 15.56° C 66% 1015.5 hPa - - - -
1787647436 15° C 67% 1015.4 hPa - - - -
1787646236 15° C 69% 1015.2 hPa - - - -
1787645036 14.44° C 68% 1015.1 hPa - - - -
1787643836 14.44° C 68% 1015 hPa - - - -
1787642638 14.44° C 69% 1014.9 hPa - - - -
1787641438 13.89° C 74% 1014.9 hPa - - - -
1787640236 13.33° C 75% 1014.9 hPa - - - -
1787639036 12.78° C 77% 1014.9 hPa - - - -

* Rain since midnight (hover to see other rain measurements)
** Current wind speed in m/s (hover to see current wind gust speed)